EDT,Max TemperatureF,Mean TemperatureF,Min TemperatureF,Max Dew PointF,MeanDew PointF,Min DewpointF,Max Humidity, Mean Humidity, Min Humidity, Max Sea Level PressureIn, Mean Sea Level PressureIn, Min Sea Level PressureIn, Max VisibilityMiles, Mean VisibilityMiles, Min VisibilityMiles, Max Wind SpeedMPH, Mean Wind SpeedMPH, Max Gust SpeedMPH,PrecipitationIn, CloudCover, Events, WindDirDegrees
2013-6-1,87,82,78,77,75,73,90,83,67,30.03,29.99,29.94,10,9,0,18,6,28,0.22,6,Rain,127
2013-6-2,84,78,73,75,74,72,97,87,74,30.02,29.98,29.93,10,8,0,17,7,25,1.46,6,Rain-Thunderstorm,156
2013-6-3,82,77,73,78,75,70,93,88,83,30.02,29.96,29.91,10,10,7,14,6,,0.15,7,Rain,104
2013-6-4,82,78,73,78,76,71,94,89,79,30.01,29.97,29.94,10,10,5,18,9,24,0.10,7,Rain,90
2013-6-5,82,80,78,79,77,70,94,87,74,29.98,29.91,29.84,10,9,2,21,14,26,0.32,7,Rain-Thunderstorm,113
2013-6-6,86,78,73,79,75,69,96,89,76,29.89,29.85,29.78,10,8,2,22,14,30,0.50,6,Rain-Thunderstorm,202
2013-6-7,86,80,75,79,75,72,94,86,70,30.01,29.94,29.87,10,9,2,17,10,25,0.02,6,Rain-Thunderstorm,196
2013-6-8,87,82,79,80,78,76,94,85,77,30.08,30.02,29.98,10,10,10,13,10,,0.00,3,,122
2013-6-9,88,84,80,77,75,74,87,77,67,30.07,30.04,29.99,10,10,10,17,14,22,0.00,3,,103
2013-6-10,88,84,80,77,76,75,87,78,69,30.06,30.03,29.99,10,10,10,16,13,21,0.00,2,,106
2013-6-11,88,82,78,79,76,73,94,81,67,30.07,30.04,30.00,10,10,4,15,6,,0.00,4,Rain-Thunderstorm,130
2013-6-12,87,78,69,79,75,68,94,85,69,30.08,30.05,30.01,10,8,0,30,5,67,2.12,6,Rain-Thunderstorm,140
2013-6-13,93,81,75,77,74,72,94,79,65,30.05,30.01,29.97,10,10,10,10,6,,0.00,3,Thunderstorm,153
2013-6-14,89,82,78,75,74,72,85,76,65,29.99,29.96,29.93,10,10,8,8,5,,0.00,3,Rain,224
2013-6-15,89,83,78,75,74,73,88,74,62,30.05,30.01,29.95,10,10,10,8,5,,0.00,3,,330
2013-6-16,89,84,78,77,74,72,84,74,65,30.07,30.04,30.01,10,10,10,16,8,,0.00,2,,102
2013-6-17,89,85,82,78,76,75,84,77,70,30.06,30.03,29.99,10,10,9,15,12,20,0.00,3,,108
2013-6-18,89,84,81,79,77,75,89,79,69,30.05,30.02,29.99,10,10,3,13,10,,0.00,4,,123
2013-6-19,89,84,81,77,76,74,85,77,67,30.04,30.01,29.98,10,10,9,12,8,,0.00,4,Thunderstorm,123
2013-6-20,89,86,82,76,75,73,79,72,63,30.09,30.04,30.01,10,10,10,16,11,21,0.00,2,Thunderstorm,112
2013-6-21,89,86,82,74,73,72,74,68,61,30.10,30.06,30.02,10,10,7,15,11,16,0.00,1,,107
2013-6-22,89,84,80,75,73,71,79,70,59,30.09,30.06,30.03,10,10,9,12,9,,0.00,2,,101
2013-6-23,89,84,80,76,74,70,84,72,61,30.10,30.06,30.02,10,9,2,16,11,,0.00,4,,111
2013-6-24,91,84,78,75,74,71,84,70,59,30.14,30.09,30.05,10,10,10,18,12,20,0.00,5,,105
2013-6-25,90,84,78,77,75,72,84,74,65,30.09,30.06,30.01,10,10,4,15,10,21,0.00,5,Thunderstorm,98
2013-6-26,86,82,77,77,76,73,94,82,70,30.08,30.03,29.99,10,8,1,17,10,25,1.71,6,Rain-Thunderstorm,127
2013-6-27,88,84,81,77,75,72,85,75,63,30.04,30.00,29.97,10,10,9,12,7,,0.00,5,Thunderstorm,115
2013-6-28,88,84,80,76,75,73,82,75,67,30.00,29.95,29.89,10,10,5,8,5,,0.00,4,Rain,133
2013-6-29,88,84,80,76,75,73,85,75,67,29.92,29.89,29.87,10,10,9,13,7,,0.00,2,,185
2013-6-30,88,82,78,76,75,73,89,76,65,29.95,29.90,29.86,10,10,7,21,13,37,0.00,4,Rain-Thunderstorm,180